Atlanta, GA

11:09 AM EST on December 09, 2019 (GMT -0500)
The Hartsfield Atlanta International

Weather History for KATL - October, 2019

Change the Weather History Date:

Wednesday, October 23, 2019

  Actual Average Record
Temperature  
Mean Temperature 58 °F 61 °F  
Max Temperature 69 °F 71 °F 86 °F (1935)
Min Temperature 47 °F 52 °F 34 °F (1937)
Degree Days  
Heating Degree Days 7 5  
Month to date heating degree days 37 68  
Since 1 July heating degree days 37 79  
Cooling Degree Days 0 1  
Month to date cooling degree days 152 59  
Year to date cooling degree days 2629 1864  
Growing Degree Days 8 (Base 50)    
Moisture  
Dew Point 37 °F    
Average Humidity 50    
Maximum Humidity 74    
Minimum Humidity 28    
Precipitation  
Precipitation 0.00 in 0.10 in 1.48 in (1966)
Month to date precipitation 2.31 2.62  
Year to date precipitation 34.64 40.92  
Sea Level Pressure  
Sea Level Pressure 30.16 in    
Wind  
Wind Speed 8 mph ()    
Max Wind Speed 14 mph    
Max Gust Speed 24 mph    
Visibility 10.0 miles    
Events      
T = Trace of Precipitation, MM = Missing Value Source: Averaged Metar Reports

Daily Weather History Graph

Daily Weather History Graph

Search for Another Location

Airport or City:

Astronomy

Oct. 23, 2019 Rise Set
Actual Time 7:48 AM EDT 6:54 PM EDT
Civil Twilight 7:23 AM EDT 7:20 PM EDT
Nautical Twilight 6:54 AM EDT 7:49 PM EDT
Astronomical Twilight 6:25 AM EDT 8:18 PM EDT
Moon 2:27 AM EDT (10/23) 4:25 PM EDT (10/23)
Length of Visible Light 11h 56m
Length of Day
11h 06m
Waning Crescent, 27% of the Moon is Illuminated
Oct 23
Waning Crescent
Oct 27
New
Nov 4
First Quarter
Nov 12
Full
Nov 19
Last Quarter

Hourly Weather History & Observations

Time (EDT) Temp. Dew Point Humidity Pressure Visibility Wind Dir Wind Speed Gust Speed Precip Events Conditions
12:52 AM 54.0 °F 39.9 °F 59% 30.09 in 10.0 mi WNW 9.2 mph - N/A   Partly Cloudy
1:52 AM 53.1 °F 39.9 °F 61% 30.09 in 10.0 mi NW 10.4 mph - N/A   Partly Cloudy
2:52 AM 51.1 °F 39.9 °F 66% 30.10 in 10.0 mi WNW 8.1 mph - N/A   Partly Cloudy
3:52 AM 50.0 °F 39.9 °F 68% 30.11 in 10.0 mi NW 8.1 mph - N/A   Partly Cloudy
4:52 AM 50.0 °F 39.9 °F 68% 30.11 in 10.0 mi NNW 9.2 mph - N/A   Partly Cloudy
5:52 AM 48.0 °F 39.9 °F 74% 30.12 in 10.0 mi NW 8.1 mph - N/A   Partly Cloudy
6:52 AM 48.0 °F 39.0 °F 71% 30.14 in 10.0 mi NW 8.1 mph - N/A   Clear
7:52 AM 48.0 °F 39.0 °F 71% 30.15 in 10.0 mi NW 9.2 mph - N/A   Partly Cloudy
8:52 AM 51.1 °F 37.9 °F 61% 30.17 in 10.0 mi NNW 8.1 mph - N/A   Partly Cloudy
9:52 AM 54.0 °F 37.9 °F 55% 30.18 in 10.0 mi NNW 11.5 mph - N/A   Partly Cloudy
10:52 AM 59.0 °F 37.0 °F 44% 30.19 in 10.0 mi North 12.7 mph - N/A   Partly Cloudy
11:52 AM 62.1 °F 35.1 °F 37% 30.21 in 10.0 mi NNE 5.8 mph - N/A   Partly Cloudy
12:52 PM 64.0 °F 33.1 °F 31% 30.20 in 10.0 mi North 11.5 mph 24.2 mph N/A   Partly Cloudy
1:52 PM 66.0 °F 34.0 °F 30% 30.18 in 10.0 mi NNE 10.4 mph - N/A   Partly Cloudy
2:52 PM 66.0 °F 34.0 °F 30% 30.15 in 10.0 mi North 8.1 mph 18.4 mph N/A   Partly Cloudy
3:52 PM 68.0 °F 35.1 °F 30% 30.14 in 10.0 mi North 10.4 mph 17.3 mph N/A   Partly Cloudy
5:52 PM 66.9 °F 33.1 °F 28% 30.15 in 10.0 mi NE 6.9 mph - N/A   Clear
6:52 PM 66.0 °F 34.0 °F 30% 30.16 in 10.0 mi NE 5.8 mph - N/A   Clear
7:52 PM 63.0 °F 36.0 °F 37% 30.17 in 10.0 mi East 4.6 mph - N/A   Clear
8:52 PM 61.0 °F 36.0 °F 39% 30.19 in 10.0 mi East 5.8 mph - N/A   Clear
10:52 PM 57.9 °F 37.0 °F 46% 30.21 in 10.0 mi East 6.9 mph - N/A   Clear
11:52 PM 55.0 °F 39.0 °F 55% 30.21 in 10.0 mi East 4.6 mph - N/A   Clear